When you browse on this site, cookies collect data to enhance your experience and personalize the content and advertising you see.
Visit our Privacy Policy to learn more. By continuing to use the site, you agree to this use of cookies and data.
  • In Österreich
  • Länderverzeichnis
  • Für 7 Tage
  • Wassertemperatur
  • Wetterkarte
  • News
  • Widgets
  • user-avatar
    Anmelden

    Stündliche Wetter Mryasovo

    Heute, 7 Juni, Sonntag

    Zeit Temperatur Niederschläge Wind Luftdruck Luftfeuchtigkeit
    00:00 +16°C° 0 mm 1 m/S 748 mmHg 86%
    01:00 +15°C° 0 mm 1 m/S 748 mmHg 87%
    02:00 +15°C° 0 mm 1 m/S 749 mmHg 87%
    03:00 +15°C° 0 mm 1 m/S 749 mmHg 88%
    04:00 +15°C° 0 mm 1 m/S 749 mmHg 88%
    05:00 +16°C° 0 mm 2 m/S 749 mmHg 85%
    06:00 +17°C° 0 mm 2 m/S 749 mmHg 82%
    07:00 +18°C° 0 mm 3 m/S 749 mmHg 79%
    08:00 +20°C° 0 mm 3 m/S 749 mmHg 73%
    09:00 +21°C° 0 mm 3 m/S 749 mmHg 67%
    10:00 +22°C° 0 mm 3 m/S 750 mmHg 61%
    11:00 +22°C° 0.7 mm 4 m/S 750 mmHg 62%
    12:00 +22°C° 0.7 mm 4 m/S 749 mmHg 62%
    13:00 +22°C° 0.7 mm 4 m/S 749 mmHg 63%
    14:00 +21°C° 0.3 mm 3 m/S 749 mmHg 70%
    15:00 +20°C° 0.3 mm 2 m/S 749 mmHg 76%
    16:00 +19°C° 0.3 mm 2 m/S 749 mmHg 83%
    17:00 +18°C° 1.4 mm 2 m/S 749 mmHg 86%
    18:00 +18°C° 1.4 mm 2 m/S 749 mmHg 90%
    19:00 +17°C° 1.4 mm 2 m/S 748 mmHg 93%
    20:00 +17°C° 1.9 mm 2 m/S 748 mmHg 94%
    21:00 +17°C° 1.9 mm 2 m/S 749 mmHg 95%
    22:00 +18°C° 1.9 mm 1 m/S 749 mmHg 96%
    23:00 +16°C° 0.4 mm 2 m/S 749 mmHg 96%

    Morgen, 8 Juni, Montag

    Zeit Temperatur Niederschläge Wind Luftdruck Luftfeuchtigkeit
    00:00 +16°C° 0.4 mm 2 m/S 748 mmHg 96%
    01:00 +16°C° 0.4 mm 2 m/S 748 mmHg 96%
    02:00 +16°C° 0.5 mm 3 m/S 748 mmHg 96%
    03:00 +16°C° 0.5 mm 3 m/S 748 mmHg 95%
    04:00 +16°C° 0.5 mm 3 m/S 748 mmHg 95%
    05:00 +17°C° 0.6 mm 3 m/S 748 mmHg 92%
    06:00 +17°C° 0.6 mm 3 m/S 748 mmHg 89%
    07:00 +18°C° 0.6 mm 3 m/S 748 mmHg 85%
    08:00 +18°C° 0.7 mm 4 m/S 748 mmHg 82%
    09:00 +19°C° 0.7 mm 4 m/S 749 mmHg 79%
    10:00 +19°C° 0.7 mm 4 m/S 749 mmHg 76%
    11:00 +21°C° 0.3 mm 5 m/S 749 mmHg 69%
    12:00 +22°C° 0.3 mm 5 m/S 749 mmHg 62%
    13:00 +23°C° 0.3 mm 6 m/S 749 mmHg 55%
    14:00 +23°C° 0.3 mm 5 m/S 748 mmHg 57%
    15:00 +23°C° 0.3 mm 4 m/S 748 mmHg 59%
    16:00 +22°C° 0.3 mm 3 m/S 748 mmHg 61%
    17:00 +22°C° 0.1 mm 3 m/S 748 mmHg 65%
    18:00 +22°C° 0.1 mm 3 m/S 748 mmHg 68%
    19:00 +22°C° 0.1 mm 4 m/S 748 mmHg 71%
    20:00 +20°C° 0.2 mm 3 m/S 748 mmHg 71%
    21:00 +19°C° 0.2 mm 3 m/S 748 mmHg 72%
    22:00 +18°C° 0.2 mm 2 m/S 749 mmHg 72%
    23:00 +18°C° 0 mm 3 m/S 749 mmHg 70%

    übermorgen, 9 Juni, Dienstag

    Zeit Temperatur Niederschläge Wind Luftdruck Luftfeuchtigkeit
    00:00 +18°C° 0 mm 3 m/S 749 mmHg 68%
    01:00 +18°C° 0 mm 4 m/S 749 mmHg 66%
    02:00 +17°C° 0 mm 5 m/S 749 mmHg 63%
    03:00 +17°C° 0 mm 5 m/S 749 mmHg 60%
    04:00 +17°C° 0 mm 6 m/S 750 mmHg 57%
    05:00 +17°C° 0 mm 6 m/S 750 mmHg 58%
    06:00 +19°C° 0 mm 6 m/S 750 mmHg 59%
    07:00 +19°C° 0 mm 6 m/S 751 mmHg 60%
    08:00 +21°C° 0 mm 6 m/S 751 mmHg 58%
    09:00 +22°C° 0 mm 6 m/S 751 mmHg 55%
    10:00 +23°C° 0 mm 6 m/S 752 mmHg 53%
    11:00 +26°C° 0 mm 6 m/S 752 mmHg 48%
    12:00 +27°C° 0 mm 6 m/S 752 mmHg 44%
    13:00 +28°C° 0 mm 6 m/S 752 mmHg 39%
    14:00 +28°C° 0 mm 6 m/S 752 mmHg 41%
    15:00 +28°C° 0 mm 6 m/S 752 mmHg 44%
    16:00 +27°C° 0 mm 6 m/S 752 mmHg 46%
    17:00 +26°C° 0 mm 6 m/S 752 mmHg 50%
    18:00 +24°C° 0 mm 6 m/S 751 mmHg 54%
    19:00 +23°C° 0 mm 6 m/S 751 mmHg 58%
    20:00 +23°C° 0 mm 5 m/S 752 mmHg 57%
    21:00 +22°C° 0 mm 5 m/S 752 mmHg 57%
    22:00 +21°C° 0 mm 5 m/S 752 mmHg 56%
    23:00 +21°C° 0 mm 5 m/S 752 mmHg 55%

    10 Juni, Mittwoch

    Zeit Temperatur Niederschläge Wind Luftdruck Luftfeuchtigkeit
    00:00 +20°C° 0 mm 5 m/S 752 mmHg 54%
    01:00 +20°C° 0 mm 5 m/S 752 mmHg 53%
    02:00 +19°C° 0 mm 5 m/S 752 mmHg 54%
    03:00 +19°C° 0 mm 5 m/S 752 mmHg 55%
    04:00 +18°C° 0 mm 4 m/S 752 mmHg 57%
    05:00 +19°C° 0 mm 5 m/S 752 mmHg 57%
    06:00 +20°C° 0 mm 5 m/S 752 mmHg 58%
    07:00 +20°C° 0 mm 6 m/S 753 mmHg 59%
    08:00 +22°C° 0 mm 5 m/S 753 mmHg 56%
    09:00 +25°C° 0 mm 5 m/S 753 mmHg 53%
    10:00 +26°C° 0 mm 5 m/S 753 mmHg 50%
    11:00 +27°C° 0 mm 5 m/S 753 mmHg 45%
    12:00 +29°C° 0 mm 5 m/S 753 mmHg 41%
    13:00 +30°C° 0 mm 5 m/S 753 mmHg 36%
    14:00 +29°C° 0 mm 4 m/S 753 mmHg 39%
    15:00 +29°C° 0 mm 4 m/S 753 mmHg 41%
    16:00 +29°C° 0 mm 3 m/S 752 mmHg 44%
    17:00 +28°C° 0 mm 3 m/S 752 mmHg 48%
    18:00 +27°C° 0 mm 3 m/S 752 mmHg 52%
    19:00 +26°C° 0 mm 3 m/S 752 mmHg 57%
    20:00 +25°C° 0 mm 3 m/S 752 mmHg 57%
    21:00 +22°C° 0 mm 3 m/S 752 mmHg 58%
    22:00 +21°C° 0 mm 3 m/S 752 mmHg 58%
    23:00 +21°C° 0 mm 3 m/S 752 mmHg 59%

    11 Juni, Donnerstag

    Zeit Temperatur Niederschläge Wind Luftdruck Luftfeuchtigkeit
    00:00 +20°C° 0 mm 4 m/S 752 mmHg 60%
    01:00 +20°C° 0 mm 4 m/S 752 mmHg 61%
    02:00 +20°C° 0 mm 3 m/S 751 mmHg 62%
    03:00 +20°C° 0 mm 3 m/S 751 mmHg 62%
    04:00 +20°C° 0 mm 3 m/S 751 mmHg 62%
    05:00 +20°C° 0 mm 3 m/S 751 mmHg 63%
    06:00 +20°C° 0 mm 3 m/S 751 mmHg 63%
    07:00 +21°C° 0 mm 4 m/S 751 mmHg 64%
    08:00 +22°C° 0 mm 4 m/S 751 mmHg 61%
    09:00 +25°C° 0 mm 4 m/S 751 mmHg 58%
    10:00 +27°C° 0 mm 5 m/S 751 mmHg 54%
    11:00 +28°C° 0 mm 4 m/S 751 mmHg 51%
    12:00 +29°C° 0 mm 4 m/S 751 mmHg 47%
    13:00 +30°C° 0 mm 4 m/S 750 mmHg 43%
    14:00 +32°C° 0 mm 4 m/S 750 mmHg 41%
    15:00 +31°C° 0 mm 3 m/S 750 mmHg 40%
    16:00 +31°C° 0 mm 3 m/S 749 mmHg 38%
    17:00 +30°C° 0 mm 3 m/S 749 mmHg 43%
    18:00 +29°C° 0 mm 2 m/S 749 mmHg 48%
    19:00 +28°C° 0 mm 2 m/S 748 mmHg 54%
    20:00 +26°C° 0 mm 2 m/S 748 mmHg 55%
    21:00 +25°C° 0 mm 2 m/S 748 mmHg 56%
    22:00 +22°C° 0 mm 3 m/S 748 mmHg 57%
    23:00 +23°C° 0 mm 2 m/S 748 mmHg 58%

    12 Juni, Freitag

    Zeit Temperatur Niederschläge Wind Luftdruck Luftfeuchtigkeit
    00:00 +21°C° 0 mm 2 m/S 748 mmHg 58%
    01:00 +21°C° 0 mm 2 m/S 747 mmHg 58%
    02:00 +20°C° 0.1 mm 2 m/S 747 mmHg 60%
    03:00 +20°C° 0.1 mm 2 m/S 747 mmHg 61%
    04:00 +19°C° 0.1 mm 2 m/S 747 mmHg 63%
    05:00 +21°C° 0.2 mm 2 m/S 747 mmHg 62%
    06:00 +23°C° 0.2 mm 2 m/S 747 mmHg 62%
    07:00 +24°C° 0.2 mm 2 m/S 747 mmHg 62%
    08:00 +26°C° 0 mm 2 m/S 747 mmHg 57%
    09:00 +27°C° 0 mm 2 m/S 746 mmHg 51%
    10:00 +29°C° 0 mm 2 m/S 746 mmHg 45%
    11:00 +30°C° 0 mm 2 m/S 746 mmHg 43%
    12:00 +31°C° 0 mm 2 m/S 746 mmHg 41%
    13:00 +32°C° 0 mm 2 m/S 746 mmHg 38%
    14:00 +32°C° 0 mm 2 m/S 745 mmHg 38%
    15:00 +33°C° 0 mm 3 m/S 745 mmHg 37%
    16:00 +33°C° 0 mm 3 m/S 745 mmHg 37%
    17:00 +31°C° 0 mm 2 m/S 744 mmHg 42%
    18:00 +30°C° 0 mm 2 m/S 744 mmHg 47%
    19:00 +30°C° 0 mm 1 m/S 744 mmHg 51%
    20:00 +28°C° 0.2 mm 1 m/S 744 mmHg 55%
    21:00 +26°C° 0.2 mm 1 m/S 743 mmHg 58%
    22:00 +24°C° 0.2 mm 1 m/S 743 mmHg 61%
    23:00 +23°C° 0.5 mm 1 m/S 743 mmHg 66%
    Mehr zeigen